BSAT-4A

导读

BSAT-4A是由日本放送卫星公司(BSAT)定制的广播卫星,于2017年9月29日发射入轨,定位于东经110度地球静止轨道。卫星由空间系统/Loral制造,基于SSL 1300平台,装载24台Ku波段转发器,主要为日本提供高清和4K超高清广播电视服务,设计寿命15年,截至2026年仍在轨正常运行。

基本信息
目录编号:
42951
目录名称:
BSAT-4A
国际标识:
2017-059B
轨道中心:
EARTH
卫星名称:
BSAT-4A
卫星全名:
--
卫星状态:
在轨 (已飞行3272 天)
发射日期:
2017-09-29 UTC
国别 :
日本 (JP)
星等 :
--
该卫星已列入 空间交会检测服务 Space Conjunction Data Service (SCDS) ,当前飞行风险评估等级: 无高风险
轨道信息
数据来源 国际轨道数据 AOE轨道数据
星历时间 2026-09-14T01:47:50+0800
7小时前
查看轨道信息
2026-09-13T02:00:00+0800
1天前
查看轨道信息
半长轴 42165.906km 42165.121km
偏心率 0.0001692 0.0002109
轨道倾角 0.013° 0.017°
近地点辐角 87.983° 116.485°
升交点赤经 17.346° 341.959°
平近点角 264.183° 273.139°
近地点 35780.634km 35778.091km
远地点 35794.904km 35795.877km
周期 1436.157分钟 1436.117分钟
每日圈数 1.002676 1.002704
详细信息
使用方式:
暂无
2D轨道图
3D轨道图
轨道高度分析图
轨道倾角分析图
轨道综合分析图
查看轨道综合分析图
与全量物体交会距离演化趋势
与全量物体交会风险概率演化趋势